Regional Weather Roundup
Issued by NWS

Home | Current Version | Previous Version | Text Only | Print | Product List | Glossary On
Versions: 1 2 3 4 5 6 7 8 9 10 11 12 13 14 15 16 17 18 19 20 21 22 23 24 25 26 27
000
ASUS44 KBMX 231110
RWRAL

ALABAMA REGIONAL WEATHER ROUNDUP
NATIONAL WEATHER SERVICE BIRMINGHAM AL
600 AM CDT WED APR 23 2014

NOTE: "FAIR" INDICATES FEW OR NO CLOUDS BELOW 12,000 FEET
WITH NO SIGNIFICANT WEATHER AND/OR OBSTRUCTIONS TO VISIBILITY.

THE REMARK "TC" DENOTES TEMPERATURE IN DEGREES CELSIUS.

ALZ001>011-014-016>018-020-231200-
NORTH ALABAMA

CITY           SKY/WX    TMP DP  RH WIND       PRES   REMARKS
MUSCLE SHOALS  CLEAR     49  44  83 CALM      30.00R
HUNTSVILLE     PTCLDY    50  45  83 NW3       29.98R
DECATUR        CLEAR     46  44  93 CALM      29.99R
HALEYVILLE     FAIR      49  43  80 N3        30.00R
GADSDEN        CLEAR     52  46  82 CALM      29.95R
$$

ALZ012-013-022-023-030>036-040>044-231200-
WEST CENTRAL ALABAMA

CITY           SKY/WX    TMP DP  RH WIND       PRES   REMARKS
TUSCALOOSA     CLEAR     56  54  93 N5        29.95R
$$

ALZ015-024>027-033>036-040>044-231200-
CENTRAL ALABAMA

CITY           SKY/WX    TMP DP  RH WIND       PRES   REMARKS
BIRMINGHAM     CLEAR     54  50  86 CALM      29.97R
MONTGOMERY     FOG       60  59  96 W3        29.93R VSB 1/4
SHELBY CO ARPT CLEAR     59  58  96 NW3       29.94R
MAXWELL AFB    FOG       61  61  99 W3        29.92R VSB 1/4
GREENVILLE     CLOUDY    61  59  94 CALM      29.92R FOG
$$

ALZ019-021-028-029-037-038-045>048-231200-
EAST CENTRAL ALABAMA

CITY           SKY/WX    TMP DP  RH WIND       PRES   REMARKS
ANNISTON       CLEAR     60  51  72 NE7       29.94R
ALEXANDER CITY CLEAR     58  54  86 CALM      29.93R FOG
AUBURN         CLOUDY    57  55  94 N6        29.95R VSB 1/4
$$

ALZ051>064-231200-
SOUTHWEST ALABAMA

CITY           SKY/WX    TMP DP  RH WIND       PRES   REMARKS
MOBILE         PTCLDY    59  59 100 NW3       29.94R
BROOKLEY FIELD CLEAR     59  58  96 CALM      29.94S FOG
EVERGREEN      FOG       60  58  92 CALM      29.95R VSB 1/4
$$

ALZ049-050-065>069-231200-
SOUTHEAST ALABAMA

CITY           SKY/WX    TMP DP  RH WIND       PRES   REMARKS
DOTHAN         CLEAR     61  60  97 W3        29.95R FOG
OZARK          FOG       59  58  98 CALM      29.92R VSB<1/4
TROY           FOG       56  54  93 CALM      29.93R VSB 1/4
EUFAULA        FOG       56  54  93 CALM      29.91R VSB 1/2
$$



USA.gov is the U.S. government's official web portal to all federal, state and local government web resources and services.